DAL1202 KMKE-KJFK

Flight info

Callsign DAL1202
Flight time N/A
Altitude 37000
Route SQUIB HAUCK HRRSH HOCKE Q935 HANKK Q140 YODAA IGN IGN1
Aircraft A320/M-SDE3FGHIRWY/LB1

Departure

Time 2026-04-28 00:41
Airport General Mitchell International Airport (KMKE)

Arrival

Time N/A
Airport John F. Kennedy International Airport (KJFK)
Time Latitude Longitude Altitude Speed Heading
2026-04-28 00:03 42.94906 -87.89850 688 ft 0 kts 207°
2026-04-28 00:31 42.94913 -87.89844 687 ft 4 kts 207°
2026-04-28 00:31 42.94937 -87.89828 683 ft 4 kts 207°
2026-04-28 00:32 42.94958 -87.89814 684 ft 4 kts 187°
2026-04-28 00:32 42.94976 -87.89823 684 ft 4 kts 117°
2026-04-28 00:32 42.94981 -87.89856 684 ft 4 kts 74°
2026-04-28 00:32 42.94973 -87.89890 682 ft 3 kts 73°
2026-04-28 00:33 42.94973 -87.89894 682 ft 0 kts 73°
2026-04-28 00:36 42.94975 -87.89883 683 ft 4 kts 73°
2026-04-28 00:36 42.94997 -87.89819 686 ft 12 kts 48°
2026-04-28 00:37 42.95086 -87.89754 688 ft 14 kts 27°
2026-04-28 00:37 42.95162 -87.89700 685 ft 12 kts 27°
2026-04-28 00:37 42.95230 -87.89653 688 ft 10 kts 27°
2026-04-28 00:37 42.95293 -87.89610 683 ft 11 kts 26°
2026-04-28 00:38 42.95373 -87.89554 685 ft 15 kts 27°
2026-04-28 00:38 42.95479 -87.89497 684 ft 18 kts
2026-04-28 00:38 42.95600 -87.89479 685 ft 15 kts
2026-04-28 00:38 42.95700 -87.89462 688 ft 14 kts 12°
2026-04-28 00:39 42.95735 -87.89432 684 ft 0 kts 56°
2026-04-28 00:39 42.95740 -87.89414 688 ft 5 kts 77°
2026-04-28 00:40 42.95744 -87.89365 688 ft 7 kts 84°
2026-04-28 00:40 42.95728 -87.89310 682 ft 6 kts 160°
2026-04-28 00:40 42.95711 -87.89311 682 ft 1 kts 187°
2026-04-28 00:40 42.95621 -87.89328 684 ft 43 kts 187°
2026-04-28 00:41 42.95095 -87.89415 683 ft 107 kts 187°
2026-04-28 00:41 42.94332 -87.89536 692 ft 150 kts 184°
2026-04-28 00:41 42.93261 -87.89671 1182 ft 155 kts 184°
2026-04-28 00:41 42.92211 -87.89845 1865 ft 153 kts 189°
2026-04-28 00:42 42.91159 -87.90030 2586 ft 154 kts 192°
2026-04-28 00:42 42.90022 -87.90234 2917 ft 176 kts 192°
2026-04-28 00:42 42.88718 -87.90468 3032 ft 198 kts 190°
2026-04-28 00:42 42.87235 -87.90727 3034 ft 227 kts 190°
2026-04-28 00:43 42.85640 -87.90994 3040 ft 233 kts 190°
2026-04-28 00:43 42.84020 -87.91257 3041 ft 235 kts 191°
2026-04-28 00:43 42.82395 -87.91518 3041 ft 234 kts 189°
2026-04-28 00:43 42.80779 -87.91770 3043 ft 234 kts 187°
2026-04-28 00:44 42.79171 -87.91457 3104 ft 248 kts 162°
2026-04-28 00:44 42.77765 -87.89963 3911 ft 268 kts 133°
2026-04-28 00:44 42.77053 -87.87539 4809 ft 290 kts 100°
2026-04-28 00:44 42.77236 -87.84739 5687 ft 301 kts 83°
2026-04-28 00:45 42.77717 -87.81932 6562 ft 306 kts 79°
2026-04-28 00:45 42.78281 -87.79210 7368 ft 310 kts 77°
2026-04-28 00:45 42.78894 -87.76380 8205 ft 313 kts 77°
2026-04-28 00:45 42.79496 -87.73552 9044 ft 316 kts 78°
2026-04-28 00:46 42.80083 -87.70658 9845 ft 318 kts 80°
2026-04-28 00:46 42.80655 -87.67715 10437 ft 330 kts 81°
2026-04-28 00:46 42.81244 -87.64576 10669 ft 353 kts 81°
2026-04-28 00:46 42.81861 -87.61233 10977 ft 371 kts 80°
2026-04-28 00:47 42.82498 -87.57801 11605 ft 377 kts 80°
2026-04-28 00:47 42.83151 -87.54306 12329 ft 381 kts 80°
2026-04-28 00:47 42.83806 -87.50799 13058 ft 384 kts 80°
2026-04-28 00:47 42.84468 -87.47260 13746 ft 387 kts 80°
2026-04-28 00:48 42.85122 -87.43743 14322 ft 392 kts 80°
2026-04-28 00:48 42.85802 -87.40068 14887 ft 397 kts 79°
2026-04-28 00:48 42.86474 -87.36428 15431 ft 403 kts 79°
2026-04-28 00:48 42.87161 -87.32696 15944 ft 408 kts 79°
2026-04-28 00:49 42.87859 -87.28911 16455 ft 415 kts 78°
2026-04-28 00:49 42.88567 -87.25068 16977 ft 421 kts 78°
2026-04-28 00:49 42.89284 -87.21177 17504 ft 426 kts 78°
2026-04-28 00:49 42.90008 -87.17230 18029 ft 432 kts 78°
2026-04-28 00:50 42.90739 -87.13227 18491 ft 437 kts 78°
2026-04-28 00:50 42.91479 -87.09185 18979 ft 442 kts 79°
2026-04-28 00:50 42.92000 -87.05052 19451 ft 442 kts 89°
2026-04-28 00:50 42.92154 -87.00862 19935 ft 445 kts 92°
2026-04-28 00:51 42.92286 -86.96611 20430 ft 449 kts 92°
2026-04-28 00:51 42.92425 -86.92338 20884 ft 453 kts 92°
2026-04-28 00:51 42.92568 -86.88035 21380 ft 456 kts 92°
2026-04-28 00:51 42.92710 -86.83741 21851 ft 460 kts 92°
2026-04-28 00:52 42.92853 -86.79367 22320 ft 463 kts 92°
2026-04-28 00:52 42.92995 -86.74959 22780 ft 467 kts 93°
2026-04-28 00:52 42.93139 -86.70523 23228 ft 470 kts 93°
2026-04-28 00:52 42.93280 -86.66037 23596 ft 473 kts 93°
2026-04-28 00:53 42.93420 -86.61538 23972 ft 476 kts 93°
2026-04-28 00:53 42.93560 -86.57029 24345 ft 478 kts 94°
2026-04-28 00:53 42.93698 -86.52483 24642 ft 481 kts 93°
2026-04-28 00:53 42.93832 -86.47906 24981 ft 483 kts 94°
2026-04-28 00:54 42.93961 -86.43392 25319 ft 485 kts 94°
2026-04-28 00:54 42.94093 -86.38711 25672 ft 487 kts 94°
2026-04-28 00:54 42.94222 -86.34069 26015 ft 490 kts 94°
2026-04-28 00:54 42.94350 -86.29420 26354 ft 492 kts 94°
2026-04-28 00:55 42.94480 -86.24741 26683 ft 494 kts 94°
2026-04-28 00:55 42.94608 -86.20045 27002 ft 496 kts 94°
2026-04-28 00:55 42.94733 -86.15392 27269 ft 499 kts 93°
2026-04-28 00:55 42.94860 -86.10643 27532 ft 502 kts 93°
2026-04-28 00:56 42.94988 -86.05864 27824 ft 505 kts 93°
2026-04-28 00:56 42.95114 -86.01051 28133 ft 506 kts 93°
2026-04-28 00:56 42.95234 -85.96242 28452 ft 507 kts 93°
2026-04-28 00:56 42.95353 -85.91423 28767 ft 508 kts 93°
2026-04-28 00:57 42.95470 -85.86606 29064 ft 510 kts 93°
2026-04-28 00:57 42.95584 -85.81746 29334 ft 512 kts 93°
2026-04-28 00:57 42.95695 -85.76875 29573 ft 513 kts 93°
2026-04-28 00:57 42.95805 -85.71997 29826 ft 515 kts 93°
2026-04-28 00:58 42.95915 -85.67102 30067 ft 516 kts 94°
2026-04-28 00:58 42.96023 -85.62213 30342 ft 515 kts 94°
2026-04-28 00:58 42.96133 -85.57326 30621 ft 515 kts 94°
2026-04-28 00:58 42.96242 -85.52437 30882 ft 515 kts 94°
2026-04-28 00:59 42.96347 -85.47554 31139 ft 515 kts 94°
2026-04-28 00:59 42.96447 -85.42734 31408 ft 514 kts 94°
2026-04-28 00:59 42.96544 -85.37849 31632 ft 515 kts 94°
2026-04-28 00:59 42.96636 -85.32946 31871 ft 516 kts 94°
2026-04-28 01:00 42.96725 -85.28051 32138 ft 516 kts 94°
2026-04-28 01:00 42.96816 -85.23141 32405 ft 517 kts 94°
2026-04-28 01:00 42.96906 -85.18233 32660 ft 517 kts 94°
2026-04-28 01:00 42.96995 -85.13332 32933 ft 516 kts 94°
2026-04-28 01:01 42.97097 -85.08422 33215 ft 518 kts 91°
2026-04-28 01:01 42.97553 -85.03501 33473 ft 523 kts 82°
2026-04-28 01:01 42.98495 -84.98720 33765 ft 525 kts 74°
2026-04-28 01:01 42.99626 -84.93972 34025 ft 524 kts 74°
2026-04-28 01:02 43.00735 -84.89270 34257 ft 524 kts 75°
2026-04-28 01:02 43.01845 -84.84519 34483 ft 524 kts 75°
2026-04-28 01:02 43.02947 -84.79771 34705 ft 524 kts 75°
2026-04-28 01:02 43.04047 -84.75025 34914 ft 524 kts 75°
2026-04-28 01:03 43.05151 -84.70265 35117 ft 524 kts 75°
2026-04-28 01:03 43.06251 -84.65512 35318 ft 524 kts 75°
2026-04-28 01:03 43.07349 -84.60765 35525 ft 523 kts 75°
2026-04-28 01:03 43.08444 -84.56022 35734 ft 523 kts 75°
2026-04-28 01:04 43.09540 -84.51270 35916 ft 523 kts 75°
2026-04-28 01:04 43.10263 -84.48137 36046 ft 523 kts 75°
2026-04-28 01:04 43.11357 -84.43382 36216 ft 523 kts 75°
2026-04-28 01:04 43.12447 -84.38627 36392 ft 523 kts 75°
2026-04-28 01:05 43.13534 -84.33870 36557 ft 523 kts 76°
2026-04-28 01:05 43.14621 -84.29104 36733 ft 523 kts 76°
2026-04-28 01:05 43.15701 -84.24361 36823 ft 520 kts 75°
2026-04-28 01:06 43.17840 -84.14934 36846 ft 517 kts 75°
2026-04-28 01:06 43.19964 -84.05517 36846 ft 516 kts 75°
2026-04-28 01:07 43.22056 -83.96199 36853 ft 516 kts 75°
2026-04-28 01:07 43.23705 -83.86642 36854 ft 511 kts 87°
2026-04-28 01:08 43.24029 -83.76957 36854 ft 508 kts 91°
2026-04-28 01:08 43.24268 -83.67257 36859 ft 508 kts 91°
2026-04-28 01:09 43.24502 -83.57581 36872 ft 508 kts 91°
2026-04-28 01:09 43.24732 -83.47890 36862 ft 509 kts 91°
2026-04-28 01:10 43.24946 -83.38149 36882 ft 511 kts 91°
2026-04-28 01:10 43.25145 -83.28394 36912 ft 512 kts 91°
2026-04-28 01:11 43.25341 -83.18621 36919 ft 512 kts 91°
2026-04-28 01:11 43.25538 -83.08821 36927 ft 514 kts 91°
2026-04-28 01:12 43.25730 -82.99078 36950 ft 515 kts 91°
2026-04-28 01:12 43.25907 -82.89239 36954 ft 516 kts 91°
2026-04-28 01:13 43.26075 -82.79395 36968 ft 517 kts 91°
2026-04-28 01:13 43.26325 -82.64591 36975 ft 518 kts 90°
2026-04-28 01:14 43.26537 -82.54702 36982 ft 518 kts 90°
2026-04-28 01:14 43.26755 -82.44818 36954 ft 518 kts 90°
2026-04-28 01:15 43.26949 -82.34928 36943 ft 518 kts 90°
2026-04-28 01:15 43.26981 -82.25073 36961 ft 514 kts 100°
2026-04-28 01:16 43.25307 -82.15632 36970 ft 509 kts 109°
2026-04-28 01:16 43.23556 -82.06211 36979 ft 510 kts 107°
2026-04-28 01:17 43.21975 -81.96797 37003 ft 510 kts 106°
2026-04-28 01:17 43.20401 -81.87316 37018 ft 510 kts 107°
2026-04-28 01:18 43.18768 -81.77837 37021 ft 510 kts 107°
2026-04-28 01:18 43.17105 -81.68388 37015 ft 510 kts 107°
2026-04-28 01:19 43.15443 -81.58945 37023 ft 510 kts 107°
2026-04-28 01:19 43.13787 -81.49512 37041 ft 509 kts 107°
2026-04-28 01:20 43.12120 -81.40078 37037 ft 509 kts 107°
2026-04-28 01:20 43.10456 -81.30731 37032 ft 509 kts 107°
2026-04-28 01:21 43.08773 -81.21286 37006 ft 509 kts 106°
2026-04-28 01:21 43.07085 -81.11885 37011 ft 510 kts 104°
2026-04-28 01:22 43.06349 -81.02232 37013 ft 512 kts 94°
2026-04-28 01:22 43.05965 -80.92514 37029 ft 512 kts 94°
2026-04-28 01:23 43.05563 -80.82774 37046 ft 512 kts 94°
2026-04-28 01:23 43.05145 -80.73105 37064 ft 513 kts 94°
2026-04-28 01:24 43.04723 -80.63374 37095 ft 513 kts 94°
2026-04-28 01:24 43.04288 -80.53627 37085 ft 513 kts 94°
2026-04-28 01:25 43.03843 -80.43884 37093 ft 513 kts 94°
2026-04-28 01:25 43.03395 -80.34143 37095 ft 513 kts 94°
2026-04-28 01:26 43.02948 -80.24404 37091 ft 513 kts 94°
2026-04-28 01:26 43.02492 -80.14739 37082 ft 513 kts 93°
2026-04-28 01:27 43.02017 -80.05013 37087 ft 512 kts 93°
2026-04-28 01:27 43.01542 -79.95298 37092 ft 512 kts 93°
2026-04-28 01:28 43.01057 -79.85600 37094 ft 512 kts 94°
2026-04-28 01:28 43.00537 -79.75897 37097 ft 511 kts 93°
2026-04-28 01:29 43.00027 -79.66225 37108 ft 510 kts 92°
2026-04-28 01:29 42.99529 -79.56619 37104 ft 509 kts 92°
2026-04-28 01:30 42.99027 -79.46956 37097 ft 509 kts 93°
2026-04-28 01:30 42.98503 -79.37324 37094 ft 508 kts 92°
2026-04-28 01:31 42.97965 -79.27728 37095 ft 508 kts 92°
2026-04-28 01:31 42.97418 -79.18104 37093 ft 508 kts 92°
2026-04-28 01:32 42.96871 -79.08488 37099 ft 508 kts 92°
2026-04-28 01:32 42.96319 -78.98882 37094 ft 506 kts 92°
2026-04-28 01:33 42.95504 -78.89315 37091 ft 508 kts 97°
2026-04-28 01:33 42.94255 -78.79889 37094 ft 508 kts 99°
2026-04-28 01:34 42.93301 -78.70363 37103 ft 505 kts 89°
2026-04-28 01:34 42.93110 -78.60772 37113 ft 505 kts 88°
2026-04-28 01:35 42.92959 -78.51197 37114 ft 505 kts 88°
2026-04-28 01:35 42.92794 -78.41617 37136 ft 505 kts 88°
2026-04-28 01:36 42.92577 -78.32034 37143 ft 505 kts 89°
2026-04-28 01:36 42.92365 -78.22471 37145 ft 504 kts 88°
2026-04-28 01:37 42.92162 -78.12951 37141 ft 504 kts 88°
2026-04-28 01:37 42.91941 -78.03403 37138 ft 504 kts 89°
2026-04-28 01:38 42.91698 -77.93822 37149 ft 504 kts 88°
2026-04-28 01:38 42.91455 -77.84256 37155 ft 504 kts 88°
2026-04-28 01:39 42.91217 -77.74736 37165 ft 503 kts 88°
2026-04-28 01:39 42.91005 -77.66789 37163 ft 503 kts 88°
2026-04-28 01:40 42.90694 -77.55635 37199 ft 502 kts 88°
2026-04-28 01:40 42.90426 -77.46116 37207 ft 501 kts 88°
2026-04-28 01:41 42.90147 -77.36616 37204 ft 501 kts 88°
2026-04-28 01:41 42.89868 -77.27184 37202 ft 500 kts 88°
2026-04-28 01:42 42.89175 -77.17659 37201 ft 507 kts 100°
2026-04-28 01:42 42.86568 -77.08752 37191 ft 512 kts 120°
2026-04-28 01:43 42.82901 -77.00433 37201 ft 512 kts 120°
2026-04-28 01:43 42.79221 -76.92114 37202 ft 512 kts 120°
2026-04-28 01:44 42.75566 -76.83853 37191 ft 512 kts 119°
2026-04-28 01:44 42.71901 -76.75538 37204 ft 512 kts 119°
2026-04-28 01:45 42.68219 -76.67241 37205 ft 512 kts 119°
2026-04-28 01:45 42.64496 -76.58916 37215 ft 512 kts 119°
2026-04-28 01:46 42.60818 -76.50689 37210 ft 512 kts 119°
2026-04-28 01:46 42.57112 -76.42444 37229 ft 512 kts 118°
2026-04-28 01:47 42.53386 -76.34185 37223 ft 513 kts 119°
2026-04-28 01:47 42.49653 -76.25930 37213 ft 513 kts 118°
2026-04-28 01:48 42.45925 -76.17694 37212 ft 513 kts 119°
2026-04-28 01:48 42.42829 -76.10863 37244 ft 513 kts 117°
2026-04-28 01:49 42.38473 -76.01290 37245 ft 513 kts 118°
2026-04-28 01:49 42.35357 -75.94453 37230 ft 513 kts 118°
2026-04-28 01:50 42.31603 -75.86251 37222 ft 512 kts 118°
2026-04-28 01:50 42.27852 -75.78073 37258 ft 512 kts 117°
2026-04-28 01:51 42.24111 -75.69937 37247 ft 512 kts 117°
2026-04-28 01:51 42.20340 -75.61761 37245 ft 512 kts 117°
2026-04-28 01:52 42.16577 -75.53618 37249 ft 511 kts 117°
2026-04-28 01:52 42.12808 -75.45478 37251 ft 511 kts 117°
2026-04-28 01:53 42.09058 -75.37415 37272 ft 511 kts 116°
2026-04-28 01:53 42.05710 -75.29062 37271 ft 500 kts 103°
2026-04-28 01:54 42.03424 -75.20268 37259 ft 497 kts 102°
2026-04-28 01:54 42.01128 -75.11488 37260 ft 498 kts 102°
2026-04-28 01:55 41.98813 -75.02692 37292 ft 499 kts 101°
2026-04-28 01:55 41.96498 -74.93896 37278 ft 499 kts 101°
2026-04-28 01:56 41.94194 -74.85160 37274 ft 499 kts 101°
2026-04-28 01:56 41.91867 -74.76359 37272 ft 499 kts 102°
2026-04-28 01:57 41.89520 -74.67573 37273 ft 500 kts 102°
2026-04-28 01:57 41.87164 -74.58815 37270 ft 501 kts 102°
2026-04-28 01:58 41.84806 -74.50006 37272 ft 500 kts 102°
2026-04-28 01:58 41.82472 -74.41208 37038 ft 501 kts 102°
2026-04-28 01:59 41.81297 -74.36771 35917 ft 509 kts 102°
2026-04-28 01:59 41.80101 -74.32250 34642 ft 519 kts 102°
2026-04-28 01:59 41.78878 -74.27651 33262 ft 528 kts 103°
2026-04-28 01:59 41.77639 -74.23052 32567 ft 520 kts 104°
2026-04-28 02:00 41.76408 -74.18522 31553 ft 518 kts 105°
2026-04-28 02:00 41.75201 -74.14070 30225 ft 512 kts 105°
2026-04-28 02:00 41.73997 -74.09624 29182 ft 505 kts 105°
2026-04-28 02:00 41.72809 -74.05246 28541 ft 496 kts 105°
2026-04-28 02:01 41.71615 -74.00938 27800 ft 491 kts 109°
2026-04-28 02:01 41.69980 -73.96890 26849 ft 498 kts 122°
2026-04-28 02:01 41.67654 -73.93445 25937 ft 502 kts 139°
2026-04-28 02:01 41.64651 -73.91074 25021 ft 503 kts 159°
2026-04-28 02:02 41.61252 -73.90149 24229 ft 497 kts 180°
2026-04-28 02:02 41.57860 -73.90703 23442 ft 487 kts 198°
2026-04-28 02:02 41.54837 -73.92444 22743 ft 474 kts 214°
2026-04-28 02:02 41.52046 -73.94801 22088 ft 466 kts 216°
2026-04-28 02:03 41.49335 -73.97110 21449 ft 459 kts 216°
2026-04-28 02:03 41.46661 -73.99392 20814 ft 453 kts 216°
2026-04-28 02:03 41.44032 -74.01643 20198 ft 447 kts 215°
2026-04-28 02:03 41.41433 -74.03875 19598 ft 442 kts 215°
2026-04-28 02:04 41.38858 -74.06085 18992 ft 438 kts 215°
2026-04-28 02:04 41.36306 -74.08276 18400 ft 434 kts 215°